Stations météo

Publicité
Le Touquet, France (7003): Température de l'air & dewpoint: 21.04.2018 02:00:00 - 27.04.2018 02:00:00 (CEST)Le Touquet, France (7003): Température de l'air 5cm: 21.04.2018 02:00:00 - 27.04.2018 02:00:00 (CEST)Le Touquet, France (7003): Vitesse du vent & gusts: 21.04.2018 02:00:00 - 27.04.2018 02:00:00 (CEST)Le Touquet, France (7003): Direction du vent: 21.04.2018 02:00:00 - 27.04.2018 02:00:00 (CEST)Le Touquet, France (7003): reduced air pressure: 21.04.2018 02:00:00 - 27.04.2018 02:00:00 (CEST)Le Touquet, France (7003): visibility: 21.04.2018 02:00:00 - 27.04.2018 02:00:00 (CEST)Le Touquet, France (7003): Ensoleillement: 21.04.2018 02:00:00 - 27.04.2018 02:00:00 (CEST)Le Touquet, France (7003): Quantités de précipitations: 21.04.2018 02:00:00 - 27.04.2018 02:00:00 (CEST)
Date & Time tt [°C] td [°C] tt 5cm [°C] ff [km/h] ff [knt] fx [km/h] fx [knt] dd ppp [hPa] vv [km] sd [min] rr [mm]
27.04.2018 02:00:00 5,9 5,0 4,6 6 3 11 6 SE 1016,3 19 0 0,0
27.04.2018 01:00:00 7,3 5,9 4,7 3 1 5 3 S 1016,9 20 0 0,0
27.04.2018 00:00:00 8,1 6,2 5,5 0 0 9 5 N 1017,4 18 0 0,0
26.04.2018 23:00:00 8,6 6,4 6,8 5 3 11 6 SSW 1017,8 19 0 0,0
26.04.2018 22:00:00 8,8 6,2 7,5 4 2 19 10 SW 1018,3 19 0 0,0
26.04.2018 21:00:00 9,3 6,4 8,6 11 6 35 19 WSW 1018,2 19 34 0,0
26.04.2018 20:00:00 10,4 6,7 10,4 16 9 32 17 WSW 1018,3 17 60 0,0
26.04.2018 19:00:00 11,4 7,1 12,9 18 10 40 21 W 1018,4 14 60 0,0
26.04.2018 18:00:00 11,8 7,1 13,9 21 12 40 22 WSW 1018,8 14 60 0,0
26.04.2018 17:00:00 12,1 7,2 14,9 21 12 46 25 WSW 1019,0 12 60 0,0
26.04.2018 16:00:00 12,1 7,6 14,8 26 14 46 25 WSW 1019,3 12 56 0,0
26.04.2018 15:00:00 12,2 7,5 15,7 25 13 44 24 WSW 1019,6 12 56 0,0
26.04.2018 14:00:00 11,7 6,8 15,5 26 14 46 25 WSW 1019,7 13 58 0,0
26.04.2018 13:00:00 11,6 6,1 15,1 24 13 39 21 WSW 1019,6 14 53 0,0
26.04.2018 12:00:00 11,7 6,6 12,6 23 13 41 22 W 1019,4 16 41 0,0
26.04.2018 11:00:00 11,7 7,4 11,4 23 13 43 23 W 1019,3 17 31 0,0
26.04.2018 10:00:00 10,8 6,9 10,3 21 11 43 23 W 1019,0 10 28 0,0
26.04.2018 09:00:00 10,0 6,7 9,1 18 10 40 21 W 1018,5 16 0 0,0
26.04.2018 08:00:00 9,6 5,9 8,7 20 11 40 21 W 1018,0 17 0 0,0
26.04.2018 07:00:00 9,4 6,1 8,4 22 12 41 22 W 1017,6 17 0 0,0
26.04.2018 06:00:00 9,4 6,5 8,2 19 10 41 22 W 1017,4 16 0 0,0
26.04.2018 05:00:00 9,5 6,4 8,3 20 11 39 21 W 1017,2 17 0 0,0
26.04.2018 04:00:00 9,6 6,7 8,4 18 10 38 20 W 1017,0 16 0 0,0
26.04.2018 03:00:00 9,7 6,2 8,6 21 11 42 23 W 1016,8 10 0 0,0
26.04.2018 02:00:00 9,8 7,0 8,8 20 11 47 25 W 1016,5 15 0 0,0
26.04.2018 01:00:00 10,0 7,6 9,1 22 12 42 23 W 1016,2 13 0 0,0
26.04.2018 00:00:00 10,0 7,9 9,2 23 12 46 25 W 1015,8 11 0 0,0
25.04.2018 23:00:00 10,1 8,2 9,2 22 12 42 23 WSW 1015,9 12 0 0,0
25.04.2018 22:00:00 10,0 7,9 9,3 21 11 42 23 WSW 1015,7 12 0 0,0
25.04.2018 21:00:00 10,3 7,9 9,9 23 13 44 24 W 1015,2 13 33 0,0
25.04.2018 20:00:00 10,9 7,9 11,1 23 12 43 23 WSW 1015,2 14 60 0,0
25.04.2018 19:00:00 11,5 7,8 13,1 22 12 46 25 WSW 1015,2 13 60 0,0
25.04.2018 18:00:00 12,1 8,4 14,4 23 13 49 27 W 1015,4 13 58 0,0
25.04.2018 17:00:00 12,3 8,4 15,4 25 13 46 25 WSW 1015,7 15 60 0,0
25.04.2018 16:00:00 12,2 8,7 15,8 26 14 49 26 WSW 1015,5 16 56 0,0
25.04.2018 15:00:00 12,5 9,3 14,5 25 13 46 25 WSW 1015,5 16 35 0,0
25.04.2018 14:00:00 12,5 9,7 15,1 24 13 45 24 W 1015,4 16 50 0,0
25.04.2018 13:00:00 11,9 9,5 15,0 22 12 44 24 WSW 1015,3 20 46 0,0
25.04.2018 12:00:00 12,3 10,2 13,5 25 13 41 22 W 1015,2 20 36 0,0
25.04.2018 11:00:00 11,7 8,9 13,4 26 14 39 21 W 1015,1 20 58 0,0
25.04.2018 10:00:00 11,5 8,7 10,7 16 9 33 18 W 1014,3 20 35 0,0
25.04.2018 09:00:00 10,6 8,2 9,6 21 11 38 21 W 1013,7 31 53 0,0
25.04.2018 08:00:00 10,2 8,1 8,4 17 9 36 19 W 1013,2 25 35 0,0
25.04.2018 07:00:00 9,5 7,9 8,5 16 9 37 20 W 1012,4 20 0 0,0
25.04.2018 06:00:00 9,9 8,8 9,1 19 10 35 19 W 1011,9 15 0 0,0
25.04.2018 05:00:00 10,6 10,1 10,5 19 10 39 21 W 1011,5 13 0 0,0
25.04.2018 04:00:00 11,0 10,5 10,8 22 12 42 23 WSW 1011,2 2,4 0 0,2
25.04.2018 03:00:00 11,5 10,2 11,1 21 11 42 23 WSW 1011,2 10 0 0,0
25.04.2018 02:00:00 11,4 10,1 11,1 18 10 40 22 WSW 1011,7 18 0 0,0
25.04.2018 01:00:00 11,6 10,5 11,3 18 10 35 19 WSW 1012,0 14 0 0,0
25.04.2018 00:00:00 11,9 10,3 11,7 16 9 26 14 WSW 1012,4 15 0 0,0
24.04.2018 23:00:00 12,2 10,6 11,7 13 7 24 13 SW 1012,8 31 0 0,0
24.04.2018 22:00:00 12,2 10,4 11,8 13 7 27 15 SW 1013,3 39 0 0,0
24.04.2018 21:00:00 12,2 10,4 11,7 9 5 17 9 WSW 1013,6 37 0 0,0
24.04.2018 20:00:00 11,7 10,6 11,7 9 5 25 14 W 1014,1 19 0 0,0
24.04.2018 19:00:00 12,0 10,1 12,2 11 6 27 15 W 1014,5 40 0 0,0
24.04.2018 18:00:00 11,9 10,0 12,6 11 6 33 18 WSW 1015,3 46 0 0,0
24.04.2018 17:00:00 12,8 10,2 14,6 18 10 34 18 W 1016,1 20 20 0,0
24.04.2018 16:00:00 12,4 9,9 13,9 18 10 35 19 WSW 1017,1 15 0 0,0
24.04.2018 15:00:00 11,9 10,5 12,8 22 12 36 19 WSW 1017,7 14 0 0,0
24.04.2018 14:00:00 11,1 10,2 12,3 18 10 39 21 SW 1018,3 8 0 0,0
24.04.2018 13:00:00 10,9 10,3 11,3 19 11 35 19 WSW 1018,8 5 0 0,0
24.04.2018 12:00:00 10,4 10,1 10,7 19 10 31 17 WSW 1019,0 3,8 0 0,0
24.04.2018 11:00:00 10,3 10,0 10,4 18 10 31 17 WSW 1018,8 2,8 0 0,0
24.04.2018 10:00:00 10,1 9,8 10,0 19 10 39 21 WSW 1018,6 10 0 0,0
24.04.2018 09:00:00 9,9 9,6 9,9 17 9 32 17 WSW 1018,6 2,1 0 0,0
24.04.2018 08:00:00 9,8 9,3 9,7 17 9 36 19 WSW 1018,1 1,6 0 0,2
24.04.2018 07:00:00 10,2 8,5 10,1 20 11 36 20 WSW 1018,0 16 0 0,0
24.04.2018 06:00:00 10,4 8,0 10,0 16 9 37 20 WSW 1018,3 20 0 0,0
24.04.2018 05:00:00 10,3 7,5 9,6 19 10 36 19 WSW 1018,1 20 0 0,0
24.04.2018 04:00:00 10,2 7,4 9,4 19 10 34 18 WSW 1018,1 43 0 0,0
24.04.2018 03:00:00 10,0 7,2 9,2 18 10 31 17 WSW 1018,5 48 0 0,0
24.04.2018 02:00:00 9,9 7,1 9,2 17 9 35 19 WSW 1018,5 53 0 0,0
24.04.2018 01:00:00 10,2 6,9 9,1 17 9 30 16 W 1019,0 60 0 0,0
24.04.2018 00:00:00 9,9 7,1 9,0 16 9 29 16 WSW 1019,2 59 0 0,0
23.04.2018 23:00:00 9,8 7,6 8,9 14 8 31 17 WSW 1019,4 59 0 0,0
23.04.2018 22:00:00 9,8 7,7 8,9 15 8 31 17 WSW 1019,6 56 0 0,0
23.04.2018 21:00:00 9,9 7,7 9,4 16 9 32 17 WSW 1019,0 48 30 0,0
23.04.2018 20:00:00 10,6 7,3 10,6 19 11 36 19 WSW 1019,1 39 51 0,0
23.04.2018 19:00:00 11,0 8,6 11,9 19 10 42 23 WSW 1019,3 43 41 0,0
23.04.2018 18:00:00 11,3 8,5 13,0 21 11 42 23 SW 1019,5 24 56 0,0
23.04.2018 17:00:00 11,8 8,1 14,9 23 12 38 21 WSW 1019,5 19 54 0,0
23.04.2018 16:00:00 12,3 8,2 16,1 25 13 48 26 W 1019,8 17 60 0,0
23.04.2018 15:00:00 12,1 8,0 15,6 26 14 43 23 W 1019,7 21 56 0,0
23.04.2018 14:00:00 12,3 9,1 14,2 22 12 40 22 WSW 1019,4 20 26 0,0
23.04.2018 13:00:00 11,7 8,0 14,6 21 11 40 21 WSW 1019,3 19 37 0,0
23.04.2018 12:00:00 11,8 8,6 15,1 20 11 38 21 WSW 1019,3 20 55 0,0
23.04.2018 11:00:00 11,8 7,9 13,5 20 11 34 19 W 1018,8 33 57 0,0
23.04.2018 10:00:00 10,9 7,4 11,8 19 10 33 18 W 1018,3 42 41 0,0
23.04.2018 09:00:00 10,8 7,3 9,8 18 10 29 16 W 1017,7 36 60 0,0
23.04.2018 08:00:00 10,2 7,6 8,6 12 7 21 11 W 1017,2 42 50 0,0
23.04.2018 07:00:00 9,2 8,4 8,6 8 5 19 11 W 1016,3 13 0 0,0
23.04.2018 06:00:00 9,9 9,4 9,7 14 8 27 15 W 1015,9 6 0 0,0
23.04.2018 05:00:00 10,3 9,7 10,3 16 9 35 19 W 1015,7 8 0 0,0
23.04.2018 04:00:00 10,5 9,7 10,4 15 8 26 14 W 1015,2 10 0 0,0
23.04.2018 03:00:00 10,7 9,8 10,6 16 9 28 15 WSW 1015,0 11 0 0,0
23.04.2018 02:00:00 10,8 9,7 9,5 20 11 31 17 WSW 1015,0 15 0 0,0
23.04.2018 01:00:00 10,4 8,7 8,5 12 7 19 10 WSW 1014,5 19 0 0,0
23.04.2018 00:00:00 9,9 7,7 8,5 7 4 12 6 SW 1014,2 19 0 0,0
22.04.2018 23:00:00 9,7 7,3 8,9 5 3 11 6 SW 1013,6 20 0 0,0
22.04.2018 22:00:00 10,4 7,6 9,7 6 3 18 10 WSW 1013,3 25 0 0,0
22.04.2018 21:00:00 11,2 8,8 10,8 9 5 24 13 W 1012,6 12 18 0,0
22.04.2018 20:00:00 12,7 9,5 12,7 13 7 31 17 W 1012,2 12 8 0,0
22.04.2018 19:00:00 15,3 10,1 16,0 14 7 25 13 W 1012,1 16 24 0,0
22.04.2018 18:00:00 16,4 10,5 20,8 14 7 23 13 W 1011,7 17 60 0,0
22.04.2018 17:00:00 17,1 10,0 23,3 11 6 31 17 WNW 1011,8 16 60 0,0
22.04.2018 16:00:00 17,9 10,3 23,1 15 8 31 17 WNW 1011,7 12 60 0,0
22.04.2018 15:00:00 18,6 10,7 24,8 16 9 30 16 W 1011,7 10 60 0,0
22.04.2018 14:00:00 19,4 11,4 24,6 18 10 34 18 W 1011,6 7 60 0,0
22.04.2018 13:00:00 21,2 15,3 25,3 16 8 27 15 SW 1011,2 7 60 0,0
22.04.2018 12:00:00 20,7 15,5 22,4 10 6 21 12 WSW 1011,2 14 60 0,0
22.04.2018 11:00:00 20,4 15,2 17,1 9 5 17 9 SE 1011,2 10 41 0,0
22.04.2018 10:00:00 17,7 15,0 14,5 11 6 16 9 SE 1011,6 8 41 0,0
22.04.2018 09:00:00 15,1 13,6 14,1 12 6 17 9 ESE 1011,6 6 2 0,0
22.04.2018 08:00:00 14,8 13,3 13,4 13 7 16 9 ESE 1011,8 7 9 0,0
22.04.2018 07:00:00 14,4 12,9 12,7 12 7 17 9 SE 1011,9 10 0 0,0
22.04.2018 06:00:00 14,1 12,7 12,6 10 5 19 10 SE 1011,9 9 0 0,0
22.04.2018 05:00:00 16,0 13,1 13,3 13 7 23 12 SE 1012,7 18 0 0,4
22.04.2018 04:00:00 14,2 12,6 13,2 10 5 13 7 N 1014,8 4,5 0 0,4
22.04.2018 03:00:00 16,5 11,6 14,4 11 6 36 20 WNW 1015,8 12 0 0,0
22.04.2018 02:00:00 15,9 12,1 14,0 12 6 18 10 SE 1015,0 7 0 0,0
22.04.2018 01:00:00 15,9 12,3 12,4 11 6 16 9 ESE 1015,1 8 0 0,0
22.04.2018 00:00:00 15,3 11,5 12,5 11 6 14 8 SE 1015,6 9 0 0,0
21.04.2018 23:00:00 16,1 11,7 12,8 11 6 15 8 ESE 1015,8 13 0 0,0
21.04.2018 22:00:00 17,5 12,2 12,7 9 5 13 7 ESE 1016,4 13 0 0,0
21.04.2018 21:00:00 19,8 13,0 14,2 8 5 16 8 ESE 1017,1 18 19 0,0
21.04.2018 20:00:00 21,7 13,3 19,3 13 7 20 11 E 1016,6 23 60 0,0
21.04.2018 19:00:00 23,3 13,7 22,2 14 8 20 11 E 1017,2 13 60 0,0
21.04.2018 18:00:00 24,1 13,9 24,5 11 6 19 11 ESE 1018,1 19 60 0,0
21.04.2018 17:00:00 24,1 15,0 25,6 4 2 18 10 NNE 1018,5 14 60 0,0
21.04.2018 16:00:00 24,6 14,4 27,6 13 7 21 12 E 1019,2 15 60 0,0
21.04.2018 15:00:00 24,3 15,8 28,8 11 6 22 12 ESE 1019,9 14 60 0,0
21.04.2018 14:00:00 23,7 14,1 28,3 9 5 20 11 SE 1020,4 5 60 0,0
21.04.2018 13:00:00 22,7 14,5 25,9 11 6 21 11 ESE 1021,0 9 60 0,0
21.04.2018 12:00:00 21,3 14,0 23,0 16 9 22 12 ESE 1021,6 6 60 0,0
21.04.2018 11:00:00 18,9 13,3 19,2 13 7 18 10 ESE 1021,9 5 60 0,0
21.04.2018 10:00:00 16,4 12,7 14,3 8 5 13 7 SSE 1022,2 3,9 60 0,0
21.04.2018 09:00:00 13,3 11,5 10,7 9 5 11 6 SE 1022,3 2,4 60 0,2
21.04.2018 08:00:00 10,7 9,8 8,5 5 3 8 5 SSE 1022,3 2,2 46 0,0
21.04.2018 07:00:00 9,7 8,9 8,1 7 4 10 5 SSE 1022,2 1,6 0 0,0
21.04.2018 06:00:00 10,0 8,9 8,4 6 3 10 5 S 1022,1 2,4 0 0,0
21.04.2018 05:00:00 10,6 9,4 8,3 8 4 10 5 SSE 1022,1 2,5 0 0,0
21.04.2018 04:00:00 10,7 9,3 8,2 6 3 8 5 SSE 1022,4 3,5 0 0,0
21.04.2018 03:00:00 11,0 9,4 7,9 7 4 10 5 SSE 1022,6 6 0 0,0
21.04.2018 02:00:00 11,0 9,9 7,5 6 3 8 5 SSE 1022,9 6 0 0,0

tt = Température de l'air
td = dewpoint
tt 5cm = Température de l'air 5cm
ff = Vitesse du vent
fx = gusts
dd = Direction du vent
ppp = reduced air pressure
vv = visibility
sd = Ensoleillement
rr = Quantités de précipitations

stations d'obs. à proximité